Flag for Germany Weather past 2 weeks in Bielefeld, North Rhine-Westphalia, Germany

Now
52 °F

Overcast.


Feels Like: 52 °F
Forecast: 46 / 65 °F
Wind: 2 mph from South

Location: Bad Lippspringe

Current Time: Aug 21, 2014 at 12:38:39 AM

Latest Report: Aug 21, 2014 at 12:00 AM


Visibility: 7 mi

Pressure: 30.03 "Hg

Humidity: 87%

Dew point: 49 °F

Location of BielefeldLocation

Historic Weather in Bielefeld — Graph

°F

Bielefeld temperature yesterday

Maximum temperature yesterday: 64 °F (at 4:00 PM)
Minimum temperature yesterday: 47 °F (at 4:00 AM)
Average temperature yesterday: 54 °F

Past Weeks' High & Low Weather Summary

 TemperatureHumidityPressure
High79 °F (Aug 8, 3:00 PM)98% (Aug 8, 4:00 AM)30.12 "Hg (Aug 8, 4:00 AM)
Low47 °F (Aug 20, 4:00 AM)40% (Aug 8, 3:00 PM)29.61 "Hg (Aug 10, 10:00 PM)
Average61 °F75%29.86 "Hg
* Reported Aug 5 11:00 PM — Aug 20 11:00 PM, Bielefeld, Weather by CustomWeather, © 2014

Note: Actual official high and low records may vary slightly from our data, if they occured in-between our weather recording intervals... More about our weather records

Advertising

Bielefeld weather history for previous 24 hours

 ConditionsComfort  
Time TempWeatherWind HumidityBarometerVisibility
11:00 PM
Aug 20
52 °FDrizzle. Overcast.1 mph90%30.03 "Hg7 mi
10:00 PM52 °FOvercast.2 mph91%30.01 "Hg9 mi
9:00 PM55 °FOvercast.2 mph82%30.00 "Hg19 mi
8:00 PM58 °FPartly sunny.1 mph65%29.99 "Hg28 mi
7:00 PM61 °FScattered clouds.3 mph51%29.98 "Hg28 mi
6:00 PM61 °FPassing clouds.3 mph54%29.98 "Hg22 mi
5:00 PM62 °FScattered clouds.7 mph53%29.99 "Hg19 mi
4:00 PM64 °FPassing clouds.6 mph47%29.98 "Hg9 mi
3:00 PM61 °FOvercast.5 mph56%29.99 "Hg22 mi
2:00 PM60 °FOvercast.6 mph58%30.00 "Hg19 mi
1:00 PM62 °FPartly sunny.7 mph61%29.99 "Hg17 mi
12:00 PM58 °FPartly sunny.6 mph65%N/A17 mi
11:00 AM57 °FScattered clouds.7 mphN/A30.00 "Hg19 mi
10:00 AM55 °FScattered clouds.6 mph75%30.00 "Hg15 mi
9:00 AM53 °FPassing clouds.3 mph81%29.99 "Hg12 mi
8:00 AM50 °FOvercast.6 mph83%29.98 "Hg14 mi
7:00 AM49 °FOvercast.3 mph86%29.97 "Hg15 mi
6:00 AM49 °FOvercast.3 mph86%29.96 "Hg14 mi
5:00 AM48 °FOvercast.3 mph87%29.96 "Hg12 mi
4:00 AM47 °FPassing clouds.3 mph87%29.95 "Hg13 mi
3:00 AM48 °FPassing clouds.3 mph86%29.94 "Hg13 mi
2:00 AM49 °FPassing clouds.3 mph85%29.94 "Hg15 mi
1:00 AM49 °FPassing clouds.3 mph87%29.94 "Hg13 mi
12:00 AM48 °FClear.2 mph90%29.93 "Hg9 mi
Weather by CustomWeather, © 2014

See weather overviewHow to use our weather pages